Prague, Czech Republic

4:31 AM CEST on April 26, 2018 (GMT +0200)
Ruzyne

Weather History for LKPR - September, 2011

Change the Weather History Date:

Sunday, September 4, 2011

  Actual Average Record
Temperature  
Mean Temperature 66 °F -  
Max Temperature 80 °F 65 °F 80 °F (2011)
Min Temperature 53 °F 46 °F 42 °F (2007)
Cooling Degree Days 2    
Growing Degree Days 16 (Base 50)    
Moisture  
Dew Point 59 °F    
Average Humidity 71    
Maximum Humidity 94    
Minimum Humidity 50    
Precipitation  
Precipitation 0.00 in 0.05 in - ()
Sea Level Pressure  
Sea Level Pressure 29.91 in    
Wind  
Wind Speed 4 mph ()    
Max Wind Speed 7 mph    
Max Gust Speed -    
Visibility 17.5 miles    
Events      
Averages and records for this station are not official NWS values.
T = Trace of Precipitation, MM = Missing Value Source: Averaged Metar Reports

Daily Weather History Graph

Daily Weather History Graph

Search for Another Location

Airport or City:

Astronomy

Sep. 04, 2011 Rise Set
Actual Time 6:21 AM CEST 7:41 PM CEST
Civil Twilight 5:47 AM CEST 8:14 PM CEST
Nautical Twilight 5:07 AM CEST 8:55 PM CEST
Astronomical Twilight 4:22 AM CEST 9:39 PM CEST
Moon 2:39 PM CEST (9/4) 10:53 PM CEST (9/4)
Length of Visible Light 14h 27m
Length of Day
13h 20m
Waxing Crescent, 46% of the Moon is Illuminated
Sep 4
Waxing Crescent
Sep 4
First Quarter
Sep 12
Full
Sep 20
Last Quarter
Sep 27
New

Hourly Weather History & Observations

Time (CEST) Temp. Heat Index Dew Point Humidity Pressure Visibility Wind Dir Wind Speed Gust Speed Precip Events Conditions
12:00 AM 64.4 °F - 55.4 °F 73% 29.98 in - SSE 5.8 mph - N/A   Clear
12:30 AM 62.6 °F - 55.4 °F 77% 29.95 in - SSE 4.6 mph - N/A   Clear
1:00 AM 64.4 °F - 55.4 °F 73% 29.95 in - SSE 5.8 mph - N/A   Clear
1:30 AM 66.2 °F - 55.4 °F 68% 29.95 in - South 2.3 mph - N/A   Clear
2:00 AM 64 °F - 55 °F 65% 29.94 in 19 mi SSE 4.5 mph - -   Clear
2:00 AM 62.6 °F - 55.4 °F 77% 29.95 in - South 3.5 mph - N/A   Clear
2:30 AM 60.8 °F - 55.4 °F 82% 29.95 in - ENE 2.3 mph - N/A   Clear
3:00 AM 60.8 °F - 53.6 °F 77% 29.95 in - NNE 3.5 mph - N/A   Clear
3:30 AM 57.2 °F - 53.6 °F 88% 29.95 in - NE 4.6 mph - N/A   Clear
4:00 AM 57.2 °F - 53.6 °F 88% 29.95 in - East 2.3 mph - N/A   Clear
4:30 AM 57.2 °F - 53.6 °F 88% 29.95 in - NE 2.3 mph - N/A   Clear
5:00 AM 57.2 °F - 53.6 °F 88% 29.95 in - NNE 3.5 mph - N/A   Clear
5:30 AM 57.2 °F - 53.6 °F 88% 29.95 in - NNE 3.5 mph - N/A   Clear
6:00 AM 57.2 °F - 53.6 °F 88% 29.95 in - ENE 4.6 mph - N/A   Clear
6:30 AM 53.6 °F - 51.8 °F 94% 29.95 in - North 2.3 mph - N/A   Clear
7:00 AM 55.4 °F - 53.6 °F 94% 29.95 in - NNE 2.3 mph - N/A   Clear
7:30 AM 57.2 °F - 55.4 °F 94% 29.95 in - North 3.5 mph - N/A   Clear
8:00 AM 60 °F - 55 °F 80% 29.93 in 16 mi NNE 4.5 mph - -   Scattered Clouds
8:00 AM 60.8 °F - 55.4 °F 82% 29.95 in - NNE 3.5 mph - N/A   Clear
8:30 AM 62.6 °F - 55.4 °F 77% 29.95 in - Variable 1.2 mph - N/A   Clear
9:00 AM 66.2 °F - 57.2 °F 73% 29.95 in - Variable 2.3 mph - N/A   Clear
9:30 AM 68.0 °F - 59.0 °F 73% 29.95 in - ENE 4.6 mph - N/A   Clear
10:00 AM 69.8 °F - 59.0 °F 68% 29.92 in - NE 4.6 mph - N/A   Clear
10:30 AM 71.6 °F - 59.0 °F 64% 29.95 in - Variable 2.3 mph - N/A   Clear
11:00 AM 71.6 °F - 59.0 °F 64% 29.95 in - Variable 2.3 mph - N/A   Clear
11:30 AM 73.4 °F - 60.8 °F 65% 29.95 in - NW 3.5 mph - N/A   Clear
12:00 PM 75.2 °F - 60.8 °F 61% 29.95 in - NNE 4.6 mph - N/A   Clear
12:30 PM 75.2 °F - 60.8 °F 61% 29.92 in - ESE 4.6 mph - N/A   Clear
1:00 PM 75.2 °F - 62.6 °F 65% 29.92 in - SE 4.6 mph - N/A   Clear
1:30 PM 75.2 °F - 62.6 °F 65% 29.92 in - South 5.8 mph - N/A   Clear
2:00 PM 77 °F - 62 °F 50% 29.87 in 25 mi SE 6.7 mph - -   Scattered Clouds
2:00 PM 77.0 °F - 62.6 °F 61% 29.92 in - SE 4.6 mph - N/A   Clear
2:30 PM 78.8 °F - 62.6 °F 57% 29.92 in - ESE 4.6 mph - N/A   Clear
3:00 PM 78.8 °F - 62.6 °F 57% 29.92 in - East 6.9 mph - N/A   Clear
3:30 PM 78.8 °F - 62.6 °F 57% 29.89 in - East 5.8 mph - N/A   Clear
4:00 PM 80.6 °F 82.3 °F 64.4 °F 58% 29.89 in - SE 4.6 mph - N/A   Clear
4:30 PM 78.8 °F - 64.4 °F 61% 29.89 in - SE 5.8 mph - N/A   Clear
5:00 PM 80.6 °F 81.8 °F 62.6 °F 54% 29.89 in - SE 4.6 mph - N/A   Clear
5:30 PM 80.6 °F 82.3 °F 64.4 °F 58% 29.89 in - ESE 4.6 mph - N/A   Clear
6:00 PM 80.6 °F 82.7 °F 66.2 °F 61% 29.86 in - East 5.8 mph - N/A   Clear
6:30 PM 80.6 °F 82.3 °F 64.4 °F 58% 29.86 in - ESE 4.6 mph - N/A   Clear
7:00 PM 77.0 °F - 64.4 °F 65% 29.83 in - ENE 4.6 mph - N/A   Clear
7:30 PM 77.0 °F - 64.4 °F 65% 29.83 in - NNE 3.5 mph - N/A   Clear
8:00 PM 74 °F - 63 °F 60% 29.81 in 25 mi North 2.2 mph - -   Scattered Clouds
8:00 PM 75.2 °F - 62.6 °F 65% 29.86 in - North 2.3 mph - N/A   Clear
8:30 PM 73.4 °F - 62.6 °F 69% 29.86 in - North 3.5 mph - N/A   Clear
9:00 PM 73.4 °F - 62.6 °F 69% 29.86 in - NNE 3.5 mph - N/A   Clear
9:30 PM 73.4 °F - 62.6 °F 69% 29.83 in - ENE 3.5 mph - N/A   Clear
10:00 PM 73.4 °F - 62.6 °F 69% 29.83 in - NNE 4.6 mph - N/A   Clear
10:30 PM 71.6 °F - 62.6 °F 73% 29.83 in - ENE 3.5 mph - N/A   Clear
11:00 PM 69.8 °F - 62.6 °F 78% 29.83 in - NE 2.3 mph - N/A   Clear
11:30 PM 69.8 °F - 62.6 °F 78% 29.80 in - East 3.5 mph - N/A   Clear